| time (UTC) | temp F | wind direction | speed MPH | gust MPH | rain 1hr in | rain 24hr in | rain mn in | humidity % | barometer mb |
| 20260506142506 | 75 | 68 | 0.0 | 0.0 | 0.02 | 0.03 | 0.03 | 36 | |
| 20260506142006 | 76 | 68 | 0.0 | 0.0 | 0.02 | 0.03 | 0.03 | 35 | |
| 20260506141506 | 76 | 68 | 0.0 | 0.0 | 0.02 | 0.03 | 0.03 | 35 | |
| 20260506141006 | 76 | 68 | 0.0 | 0.0 | 0.02 | 0.03 | 0.03 | 34 | |
| 20260506140506 | 75 | 68 | 0.0 | 0.0 | 0.01 | 0.02 | 0.02 | 35 | |
| 20260506140006 | 75 | 68 | 0.0 | 0.0 | 0.01 | 0.02 | 0.02 | 35 | |
| 20260506135506 | 76 | 68 | 0.0 | 0.0 | 0.01 | 0.02 | 0.02 | 34 | |
| 20260506135006 | 76 | 68 | 0.0 | 0.0 | 0.01 | 0.02 | 0.02 | 34 | |
| 20260506134506 | 76 | 68 | 0.0 | 0.0 | 0.01 | 0.02 | 0.02 | 35 | |
| 20260506134006 | 76 | 68 | 0.0 | 0.0 | 0.00 | 0.01 | 0.01 | 36 | |
| 20260506133506 | 76 | 68 | 0.0 | 0.0 | 0.00 | 0.01 | 0.01 | 35 | |
| 20260506133006 | 77 | 68 | 0.0 | 0.0 | 0.00 | 0.01 | 0.01 | 35 | |
| 20260506132506 | 76 | 68 | 0.0 | 0.0 | 0.00 | 0.01 | 0.01 | 35 | |
| 20260506132006 | 76 | 68 | 0.0 | 0.0 | 0.00 | 0.01 | 0.01 | 35 | |
| 20260506131506 | 76 | 68 | 0.0 | 0.0 | 0.00 | 0.01 | 0.01 | 35 | |
| 20260506131006 | 76 | 68 | 0.0 | 0.0 | 0.00 | 0.01 | 0.01 | 35 | |
| 20260506130506 | 76 | 68 | 0.0 | 0.0 | 0.00 | 0.11 | 0.01 | 36 | |
| 20260506130006 | 76 | 68 | 0.0 | 0.0 | 0.00 | 0.11 | 0.01 | 36 | |
| 20260506125506 | 76 | 68 | 0.0 | 0.0 | 0.00 | 0.11 | 0.01 | 36 | |
| 20260506125006 | 76 | 68 | 0.0 | 0.0 | 0.00 | 0.11 | 0.01 | 36 | |
| 20260506124506 | 76 | 68 | 0.0 | 0.0 | 0.00 | 0.11 | 0.01 | 36 | |
| 20260506124006 | 75 | 68 | 0.0 | 0.0 | 0.00 | 0.11 | 0.01 | 36 | |
| 20260506123506 | 75 | 68 | 0.0 | 0.0 | 0.00 | 0.11 | 0.01 | 37 | |
| 20260506123006 | 76 | 68 | 0.0 | 0.0 | 0.00 | 0.11 | 0.01 | 37 | |
| 20260506122506 | 76 | 68 | 0.0 | 0.0 | 0.00 | 0.11 | 0.01 | 36 | |
| 20260506122006 | 75 | 68 | 0.0 | 0.0 | 0.00 | 0.11 | 0.01 | 37 | |
| 20260506121506 | 75 | 68 | 0.0 | 0.0 | 0.00 | 0.11 | 0.01 | 36 | |
| 20260506121006 | 76 | 68 | 0.0 | 0.0 | 0.00 | 0.11 | 0.01 | 37 | |
| 20260506120506 | 76 | 68 | 0.0 | 0.0 | 0.00 | 0.16 | 0.01 | 38 | |
| 20260506120006 | 75 | 68 | 0.0 | 0.0 | 0.00 | 0.16 | 0.01 | 37 | |
| 20260506115506 | 75 | 68 | 0.0 | 0.0 | 0.00 | 0.16 | 0.01 | 38 | |
| 20260506115006 | 75 | 68 | 0.0 | 0.0 | 0.00 | 0.16 | 0.01 | 37 | |
| 20260506114506 | 75 | 68 | 0.0 | 0.0 | 0.00 | 0.16 | 0.01 | 37 | |
| 20260506114006 | 76 | 68 | 0.0 | 0.0 | 0.00 | 0.16 | 0.01 | 37 | |
| 20260506113506 | 75 | 68 | 0.0 | 0.0 | 0.00 | 0.16 | 0.01 | 37 | |
| 20260506113007 | 75 | 68 | 0.0 | 0.0 | 0.00 | 0.16 | 0.01 | 37 | |
| 20260506112507 | 75 | 68 | 0.0 | 0.0 | 0.00 | 0.16 | 0.01 | 38 | |
| 20260506112007 | 74 | 68 | 0.0 | 0.0 | 0.00 | 0.16 | 0.01 | 37 | |
| 20260506111507 | 75 | 68 | 0.0 | 0.0 | 0.00 | 0.16 | 0.01 | 36 | |
| 20260506111007 | 75 | 68 | 0.0 | 0.0 | 0.00 | 0.16 | 0.01 | 36 | |
| 20260506110507 | 74 | 68 | 0.0 | 0.0 | 0.00 | 0.18 | 0.01 | 37 | |
| 20260506110007 | 74 | 68 | 0.0 | 0.0 | 0.00 | 0.18 | 0.01 | 36 | |
| 20260506105507 | 75 | 68 | 0.0 | 0.0 | 0.00 | 0.18 | 0.01 | 36 | |
| 20260506105007 | 74 | 68 | 0.0 | 0.0 | 0.00 | 0.18 | 0.01 | 36 | |
| 20260506104507 | 74 | 68 | 0.0 | 0.0 | 0.00 | 0.18 | 0.01 | 36 | |
| 20260506104007 | 74 | 68 | 0.0 | 0.0 | 0.00 | 0.18 | 0.01 | 34 | |
| 20260506103507 | 74 | 68 | 0.0 | 0.0 | 0.00 | 0.18 | 0.01 | 39 | |
| 20260506103007 | 72 | 68 | 0.0 | 0.0 | 0.00 | 0.18 | 0.01 | 40 | |
| 20260506102007 | 71 | 68 | 0.0 | 0.0 | 0.00 | 0.18 | 0.01 | 40 | |
| 20260506101507 | 71 | 68 | 0.0 | 0.0 | 0.00 | 0.18 | 0.01 | 39 | |
| 20260506101007 | 71 | 68 | 0.0 | 0.0 | 0.00 | 0.18 | 0.01 | 38 | |
| 20260506100507 | 72 | 68 | 0.0 | 0.0 | 0.00 | 0.18 | 0.01 | 39 | |
| 20260506100007 | 72 | 68 | 0.0 | 0.0 | 0.00 | 0.18 | 0.01 | 38 | |
| 20260506095507 | 72 | 68 | 0.0 | 0.0 | 0.00 | 0.18 | 0.01 | 39 | |
| 20260506095007 | 71 | 68 | 0.0 | 0.0 | 0.00 | 0.18 | 0.01 | 39 | |
| 20260506094507 | 71 | 68 | 0.0 | 0.0 | 0.00 | 0.18 | 0.01 | 39 | |
| 20260506093507 | 71 | 68 | 0.0 | 0.0 | 0.00 | 0.18 | 0.01 | 39 | |
| 20260506093007 | 71 | 68 | 0.0 | 0.0 | 0.00 | 0.18 | 0.01 | 39 | |
| 20260506092507 | 71 | 68 | 0.0 | 0.0 | 0.00 | 0.18 | 0.01 | 38 | |
| 20260506092007 | 71 | 68 | 0.0 | 0.0 | 0.00 | 0.18 | 0.01 | 41 | |
| 20260506091507 | 71 | 68 | 0.0 | 0.0 | 0.00 | 0.18 | 0.01 | 39 | |
| 20260506091007 | 72 | 68 | 0.0 | 0.0 | 0.00 | 0.18 | 0.01 | 40 | |
| 20260506090507 | 71 | 68 | 0.0 | 0.0 | 0.00 | 0.18 | 0.01 | 40 | |
| 20260506090007 | 71 | 68 | 0.0 | 0.0 | 0.00 | 0.18 | 0.01 | 41 | |
| 20260506085507 | 71 | 68 | 0.0 | 0.0 | 0.00 | 0.18 | 0.01 | 40 | |
| 20260506085007 | 71 | 68 | 0.0 | 0.0 | 0.00 | 0.18 | 0.01 | 40 | |
| 20260506084507 | 71 | 68 | 0.0 | 0.0 | 0.00 | 0.18 | 0.01 | 39 | |
| 20260506084007 | 71 | 68 | 0.0 | 0.0 | 0.00 | 0.18 | 0.01 | 39 | |
| 20260506083507 | 71 | 68 | 0.0 | 0.0 | 0.00 | 0.18 | 0.01 | 39 | |
| 20260506083007 | 70 | 68 | 0.0 | 0.0 | 0.00 | 0.18 | 0.01 | 39 | |
| 20260506082507 | 70 | 68 | 0.0 | 0.0 | 0.00 | 0.18 | 0.01 | 40 | |
| 20260506082007 | 70 | 68 | 0.0 | 0.0 | 0.00 | 0.18 | 0.01 | 41 | |
| 20260506081507 | 70 | 68 | 0.0 | 0.0 | 0.00 | 0.18 | 0.01 | 39 | |
| 20260506081007 | 70 | 68 | 0.0 | 0.0 | 0.00 | 0.18 | 0.01 | 40 | |
| 20260506080507 | 70 | 68 | 0.0 | 0.0 | 0.00 | 0.18 | 0.01 | 41 | |
| 20260506073507 | 69 | 68 | 0.0 | 0.0 | 0.00 | 0.18 | 0.01 | 41 | |
| 20260506073007 | 69 | 68 | 0.0 | 0.0 | 0.00 | 0.18 | 0.01 | 41 | |
| 20260506072507 | 69 | 68 | 0.0 | 0.0 | 0.00 | 0.18 | 0.01 | 42 | |
| 20260506072007 | 69 | 68 | 0.0 | 0.0 | 0.00 | 0.18 | 0.01 | 43 | |
| 20260506071507 | 69 | 68 | 0.0 | 0.0 | 0.00 | 0.18 | 0.01 | 42 | |
| 20260506071007 | 69 | 68 | 0.0 | 0.0 | 0.00 | 0.18 | 0.01 | 43 | |
| 20260506070507 | 69 | 68 | 0.0 | 0.0 | 0.00 | 0.18 | 0.01 | 43 | |
| 20260506062507 | 69 | 68 | 0.0 | 0.0 | 0.00 | 0.18 | 0.01 | 43 | |
| 20260506062007 | 69 | 68 | 0.0 | 0.0 | 0.00 | 0.18 | 0.01 | 44 | |
| 20260506061507 | 68 | 68 | 0.0 | 0.0 | 0.00 | 0.18 | 0.01 | 46 | |
| 20260506061007 | 67 | 68 | 0.0 | 0.0 | 0.00 | 0.18 | 0.01 | 48 | |
| 20260506060507 | 66 | 68 | 0.0 | 0.0 | 0.00 | 0.18 | 0.01 | 50 | |
| 20260506051008 | 49 | 68 | 0.0 | 0.0 | 0.01 | 0.18 | 0.01 | 97 | |
| 20260506050508 | 47 | 68 | 0.0 | 0.0 | 0.01 | 0.18 | 0.01 | 99 | |
| 20260506045008 | 45 | 68 | 0.0 | 0.0 | 0.01 | 0.18 | 0.01 | 100 | |
| 20260506044508 | 45 | 68 | 0.0 | 0.0 | 0.01 | 0.18 | 0.01 | 100 | |
| 20260506044008 | 44 | 68 | 0.0 | 0.0 | 0.01 | 0.18 | 0.01 | 100 | |
| 20260506043508 | 44 | 68 | 0.0 | 0.0 | 0.01 | 0.18 | 0.01 | 100 | |
| 20260506043008 | 44 | 68 | 0.0 | 0.0 | 0.00 | 0.17 | 0.00 | 100 | |
| 20260506042508 | 44 | 68 | 0.0 | 0.0 | 0.00 | 0.17 | 0.00 | 100 | |
| 20260506042008 | 44 | 68 | 0.0 | 0.0 | 0.00 | 0.17 | 0.00 | 100 | |
| 20260506041508 | 43 | 68 | 0.0 | 0.0 | 0.00 | 0.17 | 0.00 | 100 | |
| 20260506041008 | 43 | 68 | 0.0 | 0.0 | 0.00 | 0.17 | 0.00 | 100 | |
| 20260506040508 | 43 | 68 | 0.0 | 0.0 | 0.00 | 0.17 | 0.00 | 100 | |
| 20260506040008 | 43 | 68 | 0.0 | 0.0 | 0.00 | 0.17 | 0.00 | 100 | |
| 20260506035508 | 43 | 68 | 0.0 | 0.0 | 0.00 | 0.17 | 0.00 | 100 | |
| 20260506035008 | 43 | 68 | 0.0 | 0.0 | 0.00 | 0.17 | 0.00 | 100 | |
| 20260506034508 | 42 | 68 | 0.0 | 0.0 | 0.00 | 0.17 | 0.00 | 100 | |
| 20260506034008 | 43 | 68 | 0.0 | 0.0 | 0.00 | 0.17 | 0.00 | 100 | |
| 20260506033508 | 42 | 68 | 0.0 | 0.0 | 0.00 | 0.17 | 0.00 | 100 | |
| 20260506033008 | 42 | 68 | 0.0 | 0.0 | 0.00 | 0.17 | 0.00 | 100 | |
| 20260506032508 | 42 | 68 | 0.0 | 0.0 | 0.00 | 0.17 | 0.00 | 100 | |
| 20260506032008 | 42 | 68 | 0.0 | 0.0 | 0.00 | 0.17 | 0.00 | 100 | |
| 20260506031508 | 42 | 68 | 0.0 | 0.0 | 0.00 | 0.17 | 0.00 | 100 | |
| 20260506031008 | 42 | 68 | 0.0 | 0.0 | 0.00 | 0.17 | 0.00 | 100 | |
| 20260506030508 | 42 | 68 | 0.0 | 0.0 | 0.00 | 0.17 | 0.00 | 100 | |
| 20260506030008 | 42 | 68 | 0.0 | 0.0 | 0.00 | 0.17 | 0.00 | 100 | |
| 20260506025508 | 42 | 68 | 0.0 | 0.0 | 0.00 | 0.17 | 0.00 | 100 | |
| 20260506025008 | 42 | 68 | 0.0 | 0.0 | 0.00 | 0.17 | 0.00 | 100 | |
| 20260506024508 | 42 | 68 | 0.0 | 0.0 | 0.00 | 0.17 | 0.00 | 100 | |
| 20260506024008 | 42 | 68 | 0.0 | 0.0 | 0.00 | 0.17 | 0.00 | 100 | |
| 20260506023508 | 41 | 68 | 0.0 | 0.0 | 0.00 | 0.17 | 0.00 | 100 | |
| 20260506023008 | 41 | 68 | 0.0 | 0.0 | 0.00 | 0.17 | 0.00 | 100 | |
| 20260506022508 | 41 | 68 | 0.0 | 0.0 | 0.00 | 0.17 | 0.00 | 100 | |
| 20260506022008 | 41 | 68 | 0.0 | 0.0 | 0.00 | 0.17 | 0.00 | 100 | |
| 20260506021508 | 41 | 68 | 0.0 | 0.0 | 0.00 | 0.17 | 0.00 | 100 | |
| 20260506021008 | 41 | 68 | 0.0 | 0.0 | 0.00 | 0.17 | 0.00 | 100 | |
| 20260506020508 | 41 | 68 | 0.0 | 0.0 | 0.00 | 0.17 | 0.00 | 100 | |
| 20260506020008 | 41 | 68 | 0.0 | 0.0 | 0.00 | 0.17 | 0.00 | 100 | |
| 20260506015508 | 41 | 68 | 0.0 | 0.0 | 0.00 | 0.17 | 0.00 | 100 | |
| 20260506015008 | 42 | 68 | 0.0 | 0.0 | 0.00 | 0.17 | 0.00 | 100 | |
| 20260506014508 | 42 | 68 | 0.0 | 0.0 | 0.00 | 0.17 | 0.00 | 100 | |
| 20260506014008 | 42 | 68 | 0.0 | 0.0 | 0.00 | 0.17 | 0.00 | 100 | |
| 20260506013508 | 42 | 68 | 0.0 | 0.0 | 0.00 | 0.17 | 0.00 | 100 | |
| 20260506013008 | 42 | 68 | 0.0 | 0.0 | 0.00 | 0.17 | 0.00 | 100 | |
| 20260506012508 | 42 | 68 | 0.0 | 0.0 | 0.00 | 0.17 | 0.00 | 99 | |
| 20260506012008 | 42 | 68 | 0.0 | 0.0 | 0.00 | 0.17 | 0.00 | 100 | |
| 20260506011508 | 42 | 68 | 0.0 | 0.0 | 0.00 | 0.17 | 0.00 | 100 | |
| 20260506011008 | 42 | 68 | 0.0 | 0.0 | 0.00 | 0.17 | 0.00 | 99 | |
| 20260506010508 | 42 | 68 | 0.0 | 0.0 | 0.00 | 0.17 | 0.00 | 99 | |
| 20260506010008 | 42 | 68 | 0.0 | 0.0 | 0.00 | 0.17 | 0.00 | 99 | |
| 20260506005509 | 42 | 68 | 0.0 | 0.0 | 0.00 | 0.17 | 0.00 | 99 | |
| 20260506005008 | 42 | 68 | 0.0 | 0.0 | 0.00 | 0.17 | 0.00 | 99 | |
| 20260506004508 | 43 | 68 | 0.0 | 0.0 | 0.00 | 0.17 | 0.00 | 98 | |
| 20260506004008 | 43 | 68 | 0.0 | 0.0 | 0.00 | 0.17 | 0.00 | 98 | |
| 20260506003508 | 43 | 68 | 0.0 | 0.0 | 0.00 | 0.17 | 0.00 | 98 | |
| 20260506003008 | 43 | 68 | 0.0 | 0.0 | 0.00 | 0.17 | 0.00 | 98 | |
| 20260506002508 | 43 | 68 | 0.0 | 0.0 | 0.00 | 0.17 | 0.00 | 97 | |
| 20260506002008 | 43 | 68 | 0.0 | 0.0 | 0.00 | 0.17 | 0.00 | 97 | |
| 20260506001508 | 43 | 68 | 0.0 | 0.0 | 0.00 | 0.17 | 0.00 | 98 | |
| 20260506001008 | 43 | 68 | 0.0 | 0.0 | 0.00 | 0.17 | 0.00 | 97 | |
| 20260506000508 | 43 | 68 | 0.0 | 0.0 | 0.00 | 0.17 | 0.00 | 98 | |
| 20260506000008 | 44 | 68 | 0.0 | 0.0 | 0.00 | 0.17 | 0.00 | 98 | |
| 20260505235508 | 43 | 68 | 0.0 | 0.0 | 0.00 | 0.17 | 0.00 | 97 | |
| 20260505235008 | 44 | 68 | 0.0 | 0.0 | 0.00 | 0.17 | 0.00 | 97 | |
| 20260505234509 | 44 | 68 | 0.0 | 0.0 | 0.00 | 0.17 | 0.00 | 97 | |
| 20260505234009 | 44 | 68 | 0.0 | 0.0 | 0.00 | 0.17 | 0.00 | 97 | |
| 20260505233509 | 44 | 68 | 0.0 | 0.0 | 0.00 | 0.17 | 0.00 | 96 | |
| 20260505233009 | 44 | 68 | 0.0 | 0.0 | 0.00 | 0.17 | 0.00 | 96 | |
| 20260505232509 | 44 | 68 | 0.0 | 0.0 | 0.00 | 0.17 | 0.00 | 96 | |
| 20260505232009 | 44 | 68 | 0.0 | 0.0 | 0.00 | 0.17 | 0.00 | 96 | |
| 20260505231509 | 44 | 68 | 0.0 | 0.0 | 0.00 | 0.17 | 0.00 | 95 | |
| 20260505231009 | 45 | 68 | 0.0 | 0.0 | 0.00 | 0.17 | 0.00 | 95 | |
| 20260505230509 | 45 | 68 | 0.0 | 0.0 | 0.00 | 0.17 | 0.00 | 95 | |
| 20260505230009 | 45 | 68 | 0.0 | 0.0 | 0.00 | 0.17 | 0.00 | 95 | |
| 20260505225509 | 45 | 68 | 0.0 | 0.0 | 0.00 | 0.17 | 0.00 | 95 | |
| 20260505225009 | 45 | 68 | 0.0 | 0.0 | 0.00 | 0.17 | 0.00 | 95 | |
| 20260505224509 | 46 | 68 | 0.0 | 0.0 | 0.00 | 0.17 | 0.00 | 95 | |
| 20260505224009 | 46 | 68 | 0.0 | 0.0 | 0.00 | 0.17 | 0.00 | 93 | |
| 20260505223509 | 46 | 68 | 0.0 | 0.0 | 0.00 | 0.17 | 0.00 | 94 | |
| 20260505223009 | 46 | 68 | 0.0 | 0.0 | 0.00 | 0.17 | 0.00 | 90 | |
| 20260505222509 | 46 | 68 | 0.0 | 0.0 | 0.00 | 0.17 | 0.00 | 91 | |
| 20260505222009 | 47 | 68 | 0.0 | 0.0 | 0.00 | 0.17 | 0.00 | 88 | |
| 20260505221509 | 47 | 68 | 0.0 | 0.0 | 0.00 | 0.17 | 0.00 | 90 | |
| 20260505221009 | 47 | 68 | 0.0 | 0.0 | 0.00 | 0.17 | 0.00 | 91 | |
| 20260505220509 | 47 | 68 | 0.0 | 0.0 | 0.00 | 0.17 | 0.00 | 85 | |
| 20260505220009 | 47 | 68 | 0.0 | 0.0 | 0.00 | 0.17 | 0.00 | 84 | |
| 20260505215509 | 48 | 68 | 0.0 | 0.0 | 0.00 | 0.17 | 0.00 | 86 | |
| 20260505215009 | 48 | 68 | 0.0 | 0.0 | 0.00 | 0.17 | 0.00 | 81 | |
| 20260505214509 | 48 | 68 | 0.0 | 0.0 | 0.00 | 0.17 | 0.00 | 79 | |
| 20260505214009 | 48 | 68 | 0.0 | 0.0 | 0.00 | 0.17 | 0.00 | 78 | |
| 20260505213509 | 49 | 68 | 0.0 | 0.0 | 0.00 | 0.17 | 0.00 | 77 | |
| 20260505213009 | 49 | 68 | 0.0 | 0.0 | 0.00 | 0.17 | 0.00 | 76 | |
| 20260505212509 | 49 | 68 | 0.0 | 0.0 | 0.00 | 0.17 | 0.00 | 76 | |
| 20260505212009 | 50 | 68 | 0.0 | 0.0 | 0.00 | 0.17 | 0.00 | 76 | |
| 20260505211509 | 50 | 68 | 0.0 | 0.0 | 0.00 | 0.17 | 0.00 | 75 | |
| 20260505211009 | 50 | 68 | 0.0 | 0.0 | 0.00 | 0.17 | 0.00 | 76 | |
| 20260505210509 | 50 | 68 | 0.0 | 0.0 | 0.00 | 0.17 | 0.00 | 73 | |
| 20260505210009 | 50 | 68 | 0.0 | 0.0 | 0.00 | 0.17 | 0.00 | 75 | |
| 20260505205509 | 50 | 68 | 0.0 | 0.0 | 0.00 | 0.17 | 0.00 | 73 | |
| 20260505205009 | 51 | 68 | 0.0 | 0.0 | 0.00 | 0.17 | 0.00 | 75 | |
| 20260505204509 | 51 | 68 | 0.0 | 0.0 | 0.00 | 0.17 | 0.00 | 72 | |
| 20260505204009 | 51 | 68 | 0.0 | 0.0 | 0.00 | 0.17 | 0.00 | 71 | |
| 20260505203509 | 51 | 68 | 0.0 | 0.0 | 0.00 | 0.17 | 0.00 | 71 | |
| 20260505203009 | 51 | 68 | 0.0 | 0.0 | 0.00 | 0.17 | 0.00 | 69 | |
| 20260505202509 | 52 | 68 | 0.0 | 0.0 | 0.00 | 0.17 | 0.00 | 68 | |
| 20260505202009 | 52 | 68 | 0.0 | 0.0 | 0.00 | 0.17 | 0.00 | 68 | |
| 20260505201510 | 52 | 68 | 0.0 | 0.0 | 0.00 | 0.17 | 0.00 | 67 | |
| 20260505201009 | 53 | 68 | 0.0 | 0.0 | 0.00 | 0.17 | 0.00 | 68 | |
| 20260505200509 | 53 | 68 | 0.0 | 0.0 | 0.00 | 0.17 | 0.00 | 67 | |
| 20260505200009 | 53 | 68 | 0.0 | 0.0 | 0.00 | 0.17 | 0.00 | 66 | |
| 20260505195509 | 53 | 68 | 0.0 | 0.0 | 0.00 | 0.17 | 0.00 | 65 | |
| 20260505195009 | 54 | 68 | 0.0 | 0.0 | 0.00 | 0.17 | 0.00 | 65 | |
| 20260505194509 | 54 | 68 | 0.0 | 0.0 | 0.00 | 0.17 | 0.00 | 64 | |
| 20260505194031 | 54 | 68 | 0.0 | 0.0 | 0.00 | 0.17 | 0.00 | 64 | |
| 20260505193509 | 54 | 68 | 0.0 | 0.0 | 0.00 | 0.17 | 0.00 | 64 | |
| 20260505193035 | 55 | 68 | 0.0 | 0.0 | 0.00 | 0.17 | 0.00 | 63 | |
| 20260505192009 | 55 | 68 | 0.0 | 0.0 | 0.00 | 0.17 | 0.00 | 61 | |
| 20260505191509 | 55 | 68 | 0.0 | 0.0 | 0.00 | 0.17 | 0.00 | 59 | |
| 20260505191009 | 56 | 68 | 0.0 | 0.0 | 0.00 | 0.17 | 0.00 | 60 | |
| 20260505190509 | 56 | 68 | 0.0 | 0.0 | 0.00 | 0.17 | 0.17 | 58 | |
| 20260505190009 | 56 | 68 | 0.0 | 0.0 | 0.00 | 0.17 | 0.17 | 58 | |
| 20260505185509 | 56 | 68 | 0.0 | 0.0 | 0.00 | 0.17 | 0.17 | 59 | |
| 20260505184509 | 57 | 68 | 0.0 | 0.0 | 0.00 | 0.17 | 0.17 | 58 | |
| 20260505184009 | 57 | 68 | 0.0 | 0.0 | 0.00 | 0.17 | 0.17 | 57 | |
| 20260505183509 | 57 | 68 | 0.0 | 0.0 | 0.00 | 0.17 | 0.17 | 57 | |
| 20260505183009 | 57 | 68 | 0.0 | 0.0 | 0.00 | 0.17 | 0.17 | 56 | |
| 20260505182509 | 58 | 68 | 0.0 | 0.0 | 0.00 | 0.17 | 0.17 | 55 | |
| 20260505181509 | 59 | 68 | 0.0 | 0.0 | 0.00 | 0.17 | 0.17 | 52 | |
| 20260505181024 | 59 | 68 | 0.0 | 0.0 | 0.00 | 0.17 | 0.17 | 51 | |
| 20260505180509 | 60 | 68 | 0.0 | 0.0 | 0.00 | 0.17 | 0.17 | 50 | |
| 20260505180009 | 61 | 68 | 0.0 | 0.0 | 0.00 | 0.17 | 0.17 | 48 | |
| 20260505175509 | 62 | 68 | 0.0 | 0.0 | 0.00 | 0.17 | 0.17 | 47 | |
| 20260505174651 | 63 | 68 | 0.0 | 0.0 | 0.00 | 0.17 | 0.17 | 44 | |
| 20260505174009 | 64 | 68 | 0.0 | 0.0 | 0.00 | 0.17 | 0.17 | 43 | |
| 20260505173509 | 65 | 68 | 0.0 | 0.0 | 0.00 | 0.17 | 0.17 | 41 | |
| 20260505173010 | 66 | 68 | 0.0 | 0.0 | 0.00 | 0.17 | 0.17 | 40 | |
| 20260505172510 | 67 | 68 | 0.0 | 0.0 | 0.00 | 0.17 | 0.17 | 38 | |
| 20260505172010 | 68 | 68 | 0.0 | 0.0 | 0.00 | 0.17 | 0.17 | 37 | |
| 20260505171510 | 68 | 68 | 0.0 | 0.0 | 0.00 | 0.17 | 0.17 | 34 | |
| 20260505171010 | 69 | 68 | 0.0 | 0.0 | 0.00 | 0.17 | 0.17 | 32 | |
| 20260505170510 | 70 | 68 | 0.0 | 0.0 | 0.00 | 0.18 | 0.17 | 31 | |
| 20260505170010 | 71 | 68 | 0.0 | 0.0 | 0.00 | 0.18 | 0.17 | 29 | |
| 20260505165510 | 72 | 68 | 0.0 | 0.0 | 0.00 | 0.18 | 0.17 | 28 | |
| 20260505164510 | 73 | 68 | 0.0 | 0.0 | 0.00 | 0.18 | 0.17 | 27 | |
| 20260505164010 | 74 | 68 | 0.0 | 0.0 | 0.00 | 0.18 | 0.17 | 25 | |
| 20260505163510 | 74 | 68 | 0.0 | 0.0 | 0.00 | 0.18 | 0.17 | 23 | |
| 20260505163010 | 75 | 68 | 0.0 | 0.0 | 0.00 | 0.18 | 0.17 | 23 | |
| 20260505162510 | 75 | 68 | 0.0 | 0.0 | 0.00 | 0.18 | 0.17 | 21 | |
| 20260505162010 | 75 | 68 | 0.0 | 0.0 | 0.00 | 0.18 | 0.17 | 21 | |
| 20260505161510 | 75 | 68 | 0.0 | 0.0 | 0.00 | 0.18 | 0.17 | 21 | |
| 20260505161010 | 75 | 68 | 0.0 | 0.0 | 0.00 | 0.18 | 0.17 | 23 | |
| 20260505160510 | 76 | 68 | 0.0 | 0.0 | 0.00 | 0.19 | 0.17 | 21 | |
| 20260505153010 | 77 | 68 | 0.0 | 0.0 | 0.00 | 0.19 | 0.17 | 18 | |
| 20260505152510 | 77 | 68 | 0.0 | 0.0 | 0.00 | 0.19 | 0.17 | 18 | |
| 20260505152010 | 77 | 68 | 0.0 | 0.0 | 0.00 | 0.19 | 0.17 | 19 | |
| 20260505151510 | 77 | 68 | 0.0 | 0.0 | 0.00 | 0.19 | 0.17 | 17 | |
| 20260505151010 | 78 | 68 | 0.0 | 0.0 | 0.00 | 0.19 | 0.17 | 17 | |
| 20260505150510 | 78 | 68 | 0.0 | 0.0 | 0.00 | 0.21 | 0.17 | 19 |